Back to catalog

STARLINK-30286

AliveCommunicationsVLEO
NORAD 57647·PAYLOAD·🇺🇸 United States

Launched Aug 17, 2023 from Cape Canaveral Space Force Station

Loading…

Next Passes (next 24 hours)

TLE

FreshSource: CelesTrak SupGP

Epoch: Sep 14, 2026, 13:32 UTC

1 57647C 23122R   26257.56437500  .00030549  00000+0  11064-2 0  2572
2 57647  43.0013 105.7127 0001393 263.4996 122.2089 15.27566033    13

Track STARLINK-30286 in real time with AllMySat

Download on the App Store